Theta_e
304 304 304 304 304 305 305 306 306 306 306 307 309 316 312 313 315 319 319 322 321 320 321 323 326 328 335 333 340 339 341 343 346 342 342 348 352 355 353 355 351 351 352 351 354
303 303 303 303 304 304 304 305 306 306 306 306 308 317 312 312 316 320 318 320 321 321 323 325 323 323 325 332 339 342 340 343 342 340 341 344 351 352 356 354 355 353 351 351 354
302 302 303 303 303 304 304 304 305 305 305 306 307 316 311 313 321 318 324 323 322 320 321 324 322 322 325 326 333 340 344 342 342 342 336 343 347 347 355 356 353 356 354 351 353
302 302 303 303 303 303 304 304 304 305 305 306 307 315 310 317 316 321 325 323 324 320 324 322 321 323 326 327 327 335 340 341 340 347 342 344 344 352 350 351 349 353 353 353 353
303 303 303 303 303 304 304 304 304 305 305 306 307 313 314 319 317 320 319 319 322 323 324 321 324 326 329 327 326 331 337 340 341 342 343 339 344 348 349 349 349 352 354 354 354
304 303 303 303 303 303 304 304 305 305 306 307 309 310 318 315 319 317 322 323 322 326 322 320 320 325 327 325 325 336 340 342 341 341 341 345 349 350 351 349 349 354 355 354 354
303 303 302 303 303 303 304 305 306 306 308 309 312 318 322 317 321 320 324 324 324 322 318 321 321 323 324 325 325 340 344 344 344 343 340 344 348 354 349 348 350 354 353 353 352
303 303 303 302 302 303 304 305 306 308 312 315 313 321 316 321 324 329 322 320 321 322 322 320 322 323 324 323 335 340 337 348 345 345 346 346 355 353 349 348 349 349 350 351 350
303 302 303 302 302 303 304 306 307 318 319 314 320 322 322 324 328 328 325 322 321 321 321 321 321 321 322 324 327 329 346 342 345 342 347 349 352 351 349 348 349 349 348 348 346
303 303 302 302 302 302 304 307 314 326 324 322 324 324 321 323 327 328 326 323 319 317 318 318 318 319 321 323 328 341 337 346 348 347 344 350 350 352 350 349 350 349 348 348 347
303 303 302 302 302 302 305 309 310 315 327 324 321 323 323 325 326 327 325 321 318 317 317 318 318 320 320 325 325 329 335 345 344 340 349 350 351 350 349 348 349 349 348 348 347
303 302 302 302 302 305 310 309 311 313 313 316 319 321 324 326 327 324 327 323 318 317 316 317 319 319 322 327 326 326 331 338 337 342 347 350 353 348 347 348 347 347 346 346 346
303 302 302 302 302 313 304 307 311 308 314 317 319 321 322 325 326 326 323 321 321 318 316 316 318 322 327 329 330 326 328 332 338 339 348 351 353 352 350 348 346 346 346 346 346
304 302 303 302 305 304 308 309 307 309 317 320 320 320 321 323 325 325 323 321 320 321 317 318 319 322 329 329 329 330 327 332 338 339 349 348 356 347 350 351 350 349 348 348 348
304 302 305 305 305 307 308 306 307 314 326 322 324 322 321 322 323 324 323 321 322 318 317 318 321 321 325 328 328 329 326 326 334 338 342 345 347 347 347 350 350 349 347 350 349
304 302 304 304 305 304 305 307 313 318 325 325 325 324 323 323 324 322 321 320 321 319 319 318 320 322 322 324 327 327 326 321 324 331 342 346 341 341 349 350 349 346 345 350 348
305 302 302 305 306 305 306 308 316 320 320 324 322 321 321 322 323 323 320 319 320 320 318 320 320 321 325 325 324 323 320 322 330 338 342 332 340 339 341 346 346 345 343 347 347
304 302 304 304 304 306 305 309 320 320 320 319 321 321 322 323 323 324 318 321 317 317 317 318 320 320 321 323 323 321 320 322 324 328 332 326 343 341 336 340 343 342 341 345 345
303 304 306 307 307 306 306 310 315 319 322 323 320 322 321 321 322 323 320 319 320 315 318 316 318 319 322 322 322 323 321 319 321 324 326 325 327 329 335 336 340 338 337 344 345
305 305 307 310 308 307 307 307 311 316 318 319 321 321 322 321 320 320 322 321 320 316 316 317 319 319 321 322 321 322 320 324 320 326 330 327 330 330 335 337 338 337 337 342 344
305 304 307 312 309 305 306 306 309 311 311 316 320 320 320 319 320 320 320 322 322 320 317 314 316 318 321 320 321 324 322 320 320 322 325 327 328 326 332 336 337 337 337 340 343
302 299 310 309 312 307 309 309 311 311 312 312 315 316 318 319 320 320 321 323 323 322 318 315 315 319 318 319 321 320 322 321 324 324 322 324 327 327 330 336 337 337 336 335 339
305 302 309 308 314 314 314 316 316 316 316 312 312 316 318 319 320 320 322 324 326 322 320 315 314 317 318 319 321 322 322 321 319 321 327 329 329 329 330 333 335 337 335 334 334
304 308 308 306 306 312 312 314 318 320 321 321 316 319 320 321 324 322 324 325 326 322 332 322 312 318 321 320 321 324 324 323 323 324 323 326 328 332 330 332 331 332 334 335 334
304 310 308 310 311 307 310 314 318 320 319 320 320 319 325 325 326 326 325 330 331 330 333 317 319 315 319 320 322 323 324 325 325 324 328 326 328 330 330 330 331 330 329 331 333
310 308 308 310 307 309 310 314 316 315 315 318 319 323 325 325 326 332 331 329 330 328 328 316 318 319 320 320 321 322 323 324 326 323 326 324 327 326 329 329 330 329 329 331 332
304 305 307 311 310 311 312 313 315 314 314 314 322 325 326 325 325 323 324 325 327 329 327 318 320 317 322 322 324 326 325 325 329 328 327 327 326 328 332 331 330 329 330 331 332
Wind_Speed
24 25 25 25 25 26 27 26 26 27 27 28 26 20 20 21 20 15 7 17 6 13 15 9 10 7 8 5 5 2 5 3 5 6 5 10 5 7 5 11 4 5 8 15 27
26 26 27 27 26 26 27 27 27 27 27 29 26 19 19 18 15 12 31 25 22 17 8 9 4 3 2 1 2 4 5 7 7 7 9 15 14 14 7 12 3 10 16 26 28
29 28 28 28 28 28 28 29 28 28 27 29 26 17 17 13 5 9 2 7 19 24 17 6 4 2 2 4 5 6 7 6 7 7 16 14 10 3 17 7 11 23 21 23 24
30 30 29 28 29 29 29 30 31 30 28 29 25 15 13 4 7 2 7 12 12 24 15 7 4 5 3 3 3 4 13 6 6 7 8 15 8 7 7 4 18 20 22 21 18
30 31 30 30 30 30 31 32 32 31 32 29 22 10 3 2 12 25 22 23 10 21 14 6 6 6 5 5 5 7 5 10 10 9 10 8 7 6 5 12 16 18 20 20 17
33 30 30 31 33 34 33 33 35 33 34 28 16 2 1 5 7 10 12 6 15 21 11 8 7 7 2 4 1 3 7 9 8 8 5 12 6 6 8 15 18 20 20 19 18
33 34 32 31 32 35 37 36 34 37 32 21 6 3 2 17 14 7 4 4 9 24 6 14 5 2 2 7 4 12 7 9 4 4 6 13 4 6 16 18 18 19 18 18 18
33 34 34 34 35 35 37 38 36 34 19 7 7 5 8 10 13 14 12 10 5 12 16 7 8 4 4 6 5 7 5 9 4 5 8 6 4 12 16 19 18 18 16 17 17
33 33 34 36 36 37 37 36 34 12 5 6 3 4 9 11 8 8 14 6 7 11 10 2 3 5 4 4 5 5 12 3 5 9 4 2 5 15 17 16 16 15 16 16 13
35 34 34 36 38 39 39 32 8 3 5 1 4 2 6 3 6 14 11 13 3 6 3 5 2 4 3 4 7 12 7 9 13 16 7 6 6 18 18 18 17 16 14 15 13
36 35 36 37 36 38 34 5 4 3 2 6 7 8 18 16 15 5 4 7 4 4 6 4 4 7 11 8 7 9 6 15 10 7 5 6 10 20 19 17 16 16 15 14 15
36 36 38 39 40 25 8 3 2 3 11 13 20 18 26 1 6 14 4 4 6 7 4 2 8 10 8 7 8 7 6 8 2 8 6 4 8 18 20 22 20 19 17 18 15
36 35 40 39 30 1 19 8 4 17 4 9 10 11 9 13 10 14 8 5 4 6 5 7 6 8 7 6 8 5 6 6 8 7 6 9 3 9 12 8 13 14 15 14 17
38 36 40 41 3 19 12 2 19 5 3 8 5 7 8 11 7 11 12 7 3 11 6 6 8 8 5 5 7 4 9 8 10 15 8 6 5 9 12 15 12 14 13 16 17
38 37 37 26 20 7 7 20 22 5 5 5 5 0 3 13 7 9 10 5 12 5 7 8 6 6 5 7 7 10 8 9 9 13 6 5 4 6 11 10 20 19 17 18 17
40 36 34 16 11 22 17 21 0 5 8 7 3 3 3 4 5 3 6 5 7 6 3 11 4 6 9 5 9 2 4 7 5 4 5 12 7 5 12 26 26 17 17 19 18
46 38 34 19 7 7 11 6 3 4 4 5 4 5 2 1 5 4 6 8 8 8 6 2 6 3 4 4 3 5 7 3 3 2 6 8 4 9 19 25 25 26 21 20 18
49 40 28 23 21 18 4 4 5 7 8 5 7 9 4 2 3 3 6 9 5 5 5 6 9 8 3 8 7 7 10 7 7 4 6 6 7 9 16 22 22 17 20 18 19
44 24 20 9 14 16 4 3 8 6 4 4 5 4 5 5 5 2 7 10 13 11 8 7 8 4 5 6 11 4 4 9 6 1 4 4 6 8 6 12 17 18 15 19 20
29 13 11 7 13 12 4 6 6 5 5 2 1 2 2 4 7 6 3 5 11 11 8 9 2 6 5 5 6 12 7 2 2 6 5 4 4 5 7 8 11 14 17 19 18
8 5 8 4 18 4 5 8 6 7 5 3 3 5 4 4 5 3 8 11 12 14 14 8 6 6 6 8 9 3 3 3 5 4 7 4 7 8 7 9 17 19 22 20 17
7 4 4 21 1 1 3 7 5 4 4 5 4 5 5 6 7 5 9 8 11 17 13 11 7 11 13 5 3 7 10 9 6 6 1 5 7 5 9 9 14 17 15 10 13
7 4 3 5 1 2 6 4 2 3 7 5 6 6 4 8 5 4 14 19 18 18 16 9 4 5 8 4 1 5 6 6 3 4 8 7 6 2 4 6 10 11 10 11 13
3 3 4 3 1 2 4 6 4 5 4 7 6 6 8 5 7 6 12 13 10 13 21 15 5 12 15 9 6 5 6 8 8 5 6 7 6 4 7 9 8 9 11 14 15
2 4 1 4 3 5 2 4 5 3 4 7 4 11 9 8 6 5 13 8 7 2 4 13 13 8 18 16 7 7 7 7 9 11 10 9 11 10 13 13 14 13 9 11 14
2 3 5 4 4 4 1 2 3 2 4 7 8 11 9 8 7 5 2 3 7 4 3 3 8 9 13 10 14 10 16 12 16 3 5 7 7 8 10 5 5 11 11 9 8
4 5 0 5 4 3 2 5 9 11 7 12 13 5 6 7 6 10 11 12 8 4 1 4 7 6 17 6 6 5 9 10 7 5 5 6 10 6 4 8 11 11 12 12 9
Wind_Direction
353 352 352 351 350 348 348 347 348 348 345 344 344 337 335 328 322 301 254 249 237 235 244 237 244 234 198 210 177 138 52 152 170 175 158 162 138 184 104 135 152 166 138 149 156
352 349 348 348 346 345 344 343 344 345 343 341 341 336 332 325 320 266 272 263 253 242 224 193 189 188 118 121 357 91 128 222 182 173 171 178 161 163 130 165 94 113 117 146 153
351 347 346 345 344 342 340 339 340 340 338 337 337 333 330 329 311 250 67 354 230 227 222 157 117 121 130 151 192 196 208 168 186 180 165 162 169 145 146 194 180 149 147 156 162
350 346 343 342 341 340 338 336 335 336 335 331 330 328 326 325 291 272 259 326 234 197 188 160 138 130 170 208 221 165 234 168 168 143 138 155 130 109 158 243 159 149 150 159 168
349 346 343 340 338 337 335 333 333 331 330 325 323 325 342 297 249 278 289 290 196 176 179 146 142 155 179 201 255 198 187 172 142 115 130 118 120 130 193 136 144 149 156 166 175
347 346 343 340 338 335 332 330 328 327 324 315 310 312 192 261 260 309 302 268 179 171 166 160 190 197 181 241 216 209 155 124 112 143 136 127 127 99 159 145 149 158 165 173 179
345 346 343 338 336 334 330 328 325 323 315 306 269 150 212 239 280 317 330 263 192 188 143 201 203 41 91 324 231 137 94 80 80 174 121 120 70 154 151 157 153 165 172 177 187
345 344 344 340 335 332 329 325 324 319 310 282 163 147 242 265 294 276 229 260 240 208 207 186 179 160 147 270 35 93 35 134 219 194 180 87 183 158 163 164 168 170 178 184 192
345 342 340 337 336 334 326 326 323 331 4 132 152 180 264 305 273 278 230 217 154 193 215 230 172 177 123 106 32 45 168 192 170 214 140 112 137 175 170 173 176 182 184 190 191
345 342 338 335 336 335 324 331 331 43 68 8 270 330 270 304 325 329 255 214 134 132 168 183 109 134 68 115 179 184 180 195 172 201 185 206 167 164 176 174 183 191 198 200 193
344 341 338 335 335 332 328 344 5 357 195 239 242 261 284 282 288 274 254 134 111 116 160 201 137 191 196 186 149 141 179 201 208 164 123 191 153 174 180 185 190 193 198 205 209
342 341 340 333 335 331 24 31 59 44 296 239 244 243 246 84 313 284 208 169 142 193 146 79 214 210 187 149 137 140 179 201 326 159 96 169 175 179 184 194 192 191 197 199 202
341 341 340 331 334 37 325 268 324 345 250 274 222 221 218 164 219 256 150 159 165 174 184 176 228 151 185 157 143 170 175 186 183 157 43 115 5 206 215 218 210 205 206 202 188
339 342 340 334 359 330 292 323 326 338 335 277 271 265 161 143 227 220 179 140 215 195 147 223 246 174 182 202 138 200 204 209 152 163 185 174 213 228 212 219 221 215 203 202 193
338 338 335 334 295 294 299 320 324 126 328 261 276 40 165 169 153 216 174 133 192 198 144 229 212 168 177 201 144 229 152 196 178 184 119 206 105 252 161 222 229 217 210 203 194
335 332 330 327 279 279 306 328 37 50 253 308 319 360 94 267 175 122 141 122 151 202 198 210 224 173 195 213 176 207 98 39 50 125 194 199 164 235 182 214 225 219 213 199 193
335 325 312 280 237 279 332 342 71 166 322 277 326 339 137 297 226 162 146 173 169 176 220 350 242 229 166 250 137 98 80 329 338 356 214 194 144 229 210 215 215 207 206 199 191
332 323 308 273 265 252 284 58 199 217 247 307 328 337 353 108 244 202 146 193 260 113 161 168 237 179 184 186 171 179 160 163 189 204 226 130 202 239 211 221 216 212 208 193 193
332 324 298 291 234 190 103 164 203 198 219 293 336 359 324 25 17 144 204 210 212 178 174 161 253 283 208 190 158 189 156 197 142 351 101 215 276 329 297 213 203 202 189 200 197
329 318 284 299 168 160 95 223 219 221 346 10 242 235 308 8 10 33 300 218 222 186 171 213 255 213 234 175 222 197 165 91 353 166 233 249 242 219 224 207 204 190 195 202 197
340 342 332 197 144 43 177 219 231 250 277 230 245 254 234 310 208 253 239 274 234 212 193 154 155 265 143 195 200 142 181 77 128 147 174 224 256 214 227 194 186 195 201 198 189
4 327 30 144 67 209 187 195 231 242 302 263 259 248 235 267 265 277 241 229 237 199 183 199 176 233 230 229 192 183 209 182 205 246 198 168 259 232 223 201 187 199 194 191 189
321 268 319 212 216 263 300 294 267 218 235 218 240 229 356 291 288 221 290 286 295 209 190 169 207 212 320 331 180 180 192 176 132 98 186 158 249 269 200 181 196 178 188 184 196
301 324 312 25 2 52 0 272 254 256 268 259 243 237 264 227 230 280 282 287 307 207 205 154 140 200 226 220 161 186 191 195 159 153 169 209 201 247 214 181 195 215 183 186 196
226 260 296 309 338 327 221 278 283 281 254 261 257 208 205 196 228 256 276 280 297 278 218 166 195 178 227 217 193 234 227 198 189 192 181 212 194 211 206 198 203 198 187 177 199
327 354 340 285 297 291 260 254 279 347 273 283 218 224 202 192 189 217 300 260 247 318 353 253 210 161 228 215 200 222 245 223 225 181 115 131 223 218 210 80 133 190 184 189 182
341 316 258 292 307 325 204 346 298 319 262 232 285 286 219 230 224 190 230 253 243 259 252 167 181 143 229 175 174 223 222 199 171 152 155 147 219 155 168 192 194 198 190 186 174